Year,Month,Day,Hour,Minute,Value (Times are PST for temperature in C)
2017,04,04,00,00,3.60
2017,04,04,00,01,3.60
2017,04,04,00,02,3.60
2017,04,04,00,03,3.60
2017,04,04,00,04,3.60
2017,04,04,00,05,3.60
2017,04,04,00,06,3.60
2017,04,04,00,07,3.50
2017,04,04,00,08,3.50
2017,04,04,00,09,3.50
2017,04,04,00,10,3.50
2017,04,04,00,11,3.50
2017,04,04,00,12,3.50
2017,04,04,00,13,3.50
2017,04,04,00,14,3.50
2017,04,04,00,15,3.40
2017,04,04,00,16,3.40
2017,04,04,00,17,3.40
2017,04,04,00,18,3.40
2017,04,04,00,19,3.40
2017,04,04,00,20,3.40
2017,04,04,00,21,3.40
2017,04,04,00,22,3.40
2017,04,04,00,23,3.40
2017,04,04,00,24,3.30
2017,04,04,00,25,3.30
2017,04,04,00,26,3.30
2017,04,04,00,27,3.30
2017,04,04,00,28,3.30
2017,04,04,00,29,3.30
2017,04,04,00,30,3.30
2017,04,04,00,31,3.30
2017,04,04,00,32,3.30
2017,04,04,00,33,3.30
2017,04,04,00,34,3.30
2017,04,04,00,35,3.30
2017,04,04,00,36,3.30
2017,04,04,00,37,3.30
2017,04,04,00,38,3.30
2017,04,04,00,39,3.30
2017,04,04,00,40,3.30
2017,04,04,00,41,3.30
2017,04,04,00,42,3.30
2017,04,04,00,43,3.30
2017,04,04,00,44,3.30
2017,04,04,00,45,3.20
2017,04,04,00,46,3.20
2017,04,04,00,47,3.20
2017,04,04,00,48,3.20
2017,04,04,00,49,3.20
2017,04,04,00,50,3.20
2017,04,04,00,51,3.20
2017,04,04,00,52,3.20
2017,04,04,00,53,3.20
2017,04,04,00,54,3.20
2017,04,04,00,55,3.20
2017,04,04,00,56,3.20
2017,04,04,00,57,3.20
2017,04,04,00,58,3.10
2017,04,04,00,59,3.10
2017,04,04,01,00,3.10
2017,04,04,01,01,3.10
2017,04,04,01,02,3.10
2017,04,04,01,03,3.10
2017,04,04,01,04,3.10
2017,04,04,01,05,3.10
2017,04,04,01,06,3.10
2017,04,04,01,07,3.00
2017,04,04,01,08,3.00
2017,04,04,01,09,3.00
2017,04,04,01,10,3.00
2017,04,04,01,11,3.00
2017,04,04,01,12,3.00
2017,04,04,01,13,2.90
2017,04,04,01,14,3.00
2017,04,04,01,15,2.90
2017,04,04,01,16,2.90
2017,04,04,01,17,2.90
2017,04,04,01,18,2.90
2017,04,04,01,19,2.90
2017,04,04,01,20,2.90
2017,04,04,01,21,2.90
2017,04,04,01,22,2.90
2017,04,04,01,23,2.90
2017,04,04,01,24,2.90
2017,04,04,01,25,2.90
2017,04,04,01,26,2.90
2017,04,04,01,27,2.90
2017,04,04,01,28,2.90
2017,04,04,01,29,2.90
2017,04,04,01,30,2.90
2017,04,04,01,31,2.90
2017,04,04,01,32,2.90
2017,04,04,01,33,2.90
2017,04,04,01,34,2.90
2017,04,04,01,35,2.90
2017,04,04,01,36,2.80
2017,04,04,01,37,2.80
2017,04,04,01,38,2.80
2017,04,04,01,39,2.80
2017,04,04,01,40,2.80
2017,04,04,01,41,2.80
2017,04,04,01,42,2.80
2017,04,04,01,43,2.80
2017,04,04,01,44,2.80
2017,04,04,01,45,2.80
2017,04,04,01,46,2.80
2017,04,04,01,47,2.80
2017,04,04,01,48,2.80
2017,04,04,01,49,2.80
2017,04,04,01,50,2.80
2017,04,04,01,51,2.80
2017,04,04,01,52,2.80
2017,04,04,01,53,2.80
2017,04,04,01,54,2.80
2017,04,04,01,55,2.80
2017,04,04,01,56,2.80
2017,04,04,01,57,2.80
2017,04,04,01,58,2.80
2017,04,04,01,59,2.80
2017,04,04,02,00,2.80
2017,04,04,02,01,2.80
2017,04,04,02,02,2.70
2017,04,04,02,03,2.70
2017,04,04,02,04,2.70
2017,04,04,02,05,2.70
2017,04,04,02,06,2.70
2017,04,04,02,07,2.70
2017,04,04,02,08,2.70
2017,04,04,02,09,2.70
2017,04,04,02,10,2.70
2017,04,04,02,11,2.70
2017,04,04,02,12,2.70
2017,04,04,02,13,2.70
2017,04,04,02,14,2.70
2017,04,04,02,15,2.70
2017,04,04,02,16,2.70
2017,04,04,02,17,2.70
2017,04,04,02,18,2.70
2017,04,04,02,19,2.70
2017,04,04,02,20,2.70
2017,04,04,02,21,2.70
2017,04,04,02,22,2.70
2017,04,04,02,23,2.70
2017,04,04,02,24,2.70
2017,04,04,02,25,2.70
2017,04,04,02,26,2.70
2017,04,04,02,27,2.70
2017,04,04,02,28,2.70
2017,04,04,02,29,2.70
2017,04,04,02,30,2.70
2017,04,04,02,31,2.70
2017,04,04,02,32,2.70
2017,04,04,02,33,2.70
2017,04,04,02,34,2.70
2017,04,04,02,35,2.70
2017,04,04,02,36,2.70
2017,04,04,02,37,2.70
2017,04,04,02,38,2.70
2017,04,04,02,39,2.70
2017,04,04,02,40,2.70
2017,04,04,02,41,2.70
2017,04,04,02,42,2.70
2017,04,04,02,43,2.70
2017,04,04,02,44,2.70
2017,04,04,02,45,2.70
2017,04,04,02,46,2.70
2017,04,04,02,47,2.70
2017,04,04,02,48,2.70
2017,04,04,02,49,2.70
2017,04,04,02,50,2.70
2017,04,04,02,51,2.70
2017,04,04,02,52,2.70
2017,04,04,02,53,2.70
2017,04,04,02,54,2.70
2017,04,04,02,55,2.70
2017,04,04,02,56,2.70
2017,04,04,02,57,2.70
2017,04,04,02,58,2.70
2017,04,04,02,59,2.70
2017,04,04,03,00,2.70
2017,04,04,03,01,2.70
2017,04,04,03,02,2.70
2017,04,04,03,03,2.70
2017,04,04,03,04,2.70
2017,04,04,03,05,2.70
2017,04,04,03,06,2.70
2017,04,04,03,07,2.70
2017,04,04,03,08,2.70
2017,04,04,03,09,2.70
2017,04,04,03,10,2.70
2017,04,04,03,11,2.70
2017,04,04,03,12,2.70
2017,04,04,03,13,2.70
2017,04,04,03,14,2.70
2017,04,04,03,15,2.70
2017,04,04,03,16,2.70
2017,04,04,03,17,2.70
2017,04,04,03,18,2.70
2017,04,04,03,19,2.70
2017,04,04,03,20,2.80
2017,04,04,03,21,2.80
2017,04,04,03,22,2.80
2017,04,04,03,23,2.80
2017,04,04,03,24,2.80
2017,04,04,03,25,2.80
2017,04,04,03,26,2.80
2017,04,04,03,27,2.80
2017,04,04,03,28,2.80
2017,04,04,03,29,2.80
2017,04,04,03,30,2.80
2017,04,04,03,31,2.80
2017,04,04,03,32,2.80
2017,04,04,03,33,2.80
2017,04,04,03,34,2.80
2017,04,04,03,35,2.80
2017,04,04,03,36,2.80
2017,04,04,03,37,2.80
2017,04,04,03,38,2.80
2017,04,04,03,39,2.80
2017,04,04,03,40,2.80
2017,04,04,03,41,2.80
2017,04,04,03,42,2.80
2017,04,04,03,43,2.80
2017,04,04,03,44,2.80
2017,04,04,03,45,2.80
2017,04,04,03,46,2.80
2017,04,04,03,47,2.80
2017,04,04,03,48,2.80
2017,04,04,03,49,2.80
2017,04,04,03,50,2.80
2017,04,04,03,51,2.80
2017,04,04,03,52,2.80
2017,04,04,03,53,2.80
2017,04,04,03,54,2.80
2017,04,04,03,55,2.80
2017,04,04,03,56,2.80
2017,04,04,03,57,2.80
2017,04,04,03,58,2.80
2017,04,04,03,59,2.80
2017,04,04,04,00,2.80
2017,04,04,04,01,2.80
2017,04,04,04,02,2.80
2017,04,04,04,03,2.80
2017,04,04,04,04,2.80
2017,04,04,04,05,2.80
2017,04,04,04,06,2.80
2017,04,04,04,07,2.90
2017,04,04,04,08,2.90
2017,04,04,04,09,2.90
2017,04,04,04,10,2.90
2017,04,04,04,11,2.90
2017,04,04,04,12,2.90
2017,04,04,04,13,2.90
2017,04,04,04,14,2.90
2017,04,04,04,15,2.90
2017,04,04,04,16,2.90
2017,04,04,04,17,2.90
2017,04,04,04,18,2.90
2017,04,04,04,19,2.90
2017,04,04,04,20,2.90
2017,04,04,04,21,2.90
2017,04,04,04,22,2.90
2017,04,04,04,23,2.90
2017,04,04,04,24,2.90
2017,04,04,04,25,2.90
2017,04,04,04,26,2.90
2017,04,04,04,27,2.90
2017,04,04,04,28,2.90
2017,04,04,04,29,2.90
2017,04,04,04,30,2.90
2017,04,04,04,31,2.90
2017,04,04,04,32,2.90
2017,04,04,04,33,2.90
2017,04,04,04,34,2.90
2017,04,04,04,35,2.90
2017,04,04,04,36,2.90
2017,04,04,04,37,2.90
2017,04,04,04,38,2.90
2017,04,04,04,39,2.90
2017,04,04,04,40,2.90
2017,04,04,04,41,2.90
2017,04,04,04,42,2.90
2017,04,04,04,43,2.90
2017,04,04,04,44,2.90
2017,04,04,04,45,2.90
2017,04,04,04,46,2.90
2017,04,04,04,47,2.90
2017,04,04,04,48,2.90
2017,04,04,04,49,2.90
2017,04,04,04,50,2.90
2017,04,04,04,51,2.90
2017,04,04,04,52,2.90
2017,04,04,04,53,2.90
2017,04,04,04,54,2.90
2017,04,04,04,55,2.90
2017,04,04,04,56,2.90
2017,04,04,04,57,2.90
2017,04,04,04,58,2.90
2017,04,04,04,59,2.90
2017,04,04,05,00,2.90
2017,04,04,05,01,2.90
2017,04,04,05,02,2.90
2017,04,04,05,03,2.90
2017,04,04,05,04,2.90
2017,04,04,05,05,2.90
2017,04,04,05,06,2.90
2017,04,04,05,07,2.90
2017,04,04,05,08,3.00
2017,04,04,05,09,3.00
2017,04,04,05,10,3.00
2017,04,04,05,11,3.00
2017,04,04,05,12,3.00
2017,04,04,05,13,3.00
2017,04,04,05,14,3.00
2017,04,04,05,15,3.10
2017,04,04,05,16,3.10
2017,04,04,05,17,3.10
2017,04,04,05,18,3.10
2017,04,04,05,19,3.10
2017,04,04,05,20,3.10
2017,04,04,05,21,3.10
2017,04,04,05,22,3.10
2017,04,04,05,23,3.10
2017,04,04,05,24,3.10
2017,04,04,05,25,3.10
2017,04,04,05,26,3.10
2017,04,04,05,27,3.10
2017,04,04,05,28,3.10
2017,04,04,05,29,3.10
2017,04,04,05,30,3.10
2017,04,04,05,31,3.10
2017,04,04,05,32,3.10
2017,04,04,05,33,3.10
2017,04,04,05,34,3.10
2017,04,04,05,35,3.10
2017,04,04,05,36,3.10
2017,04,04,05,37,3.10
2017,04,04,05,38,3.10
2017,04,04,05,39,3.10
2017,04,04,05,40,3.10
2017,04,04,05,41,3.10
2017,04,04,05,42,3.10
2017,04,04,05,43,3.10
2017,04,04,05,44,3.10
2017,04,04,05,45,3.10
2017,04,04,05,46,3.10
2017,04,04,05,47,3.10
2017,04,04,05,48,3.10
2017,04,04,05,49,3.10
2017,04,04,05,50,3.00
2017,04,04,05,51,3.00
2017,04,04,05,52,3.00
2017,04,04,05,53,3.00
2017,04,04,05,54,3.00
2017,04,04,05,55,3.00
2017,04,04,05,56,3.00
2017,04,04,05,57,3.10
2017,04,04,05,58,3.10
2017,04,04,05,59,3.10
2017,04,04,06,00,3.10
2017,04,04,06,01,3.10
2017,04,04,06,02,3.10
2017,04,04,06,03,3.10
2017,04,04,06,04,3.10
2017,04,04,06,05,3.10
2017,04,04,06,06,3.10
2017,04,04,06,07,3.10
2017,04,04,06,08,3.10
2017,04,04,06,09,3.10
2017,04,04,06,10,3.10
2017,04,04,06,11,3.10
2017,04,04,06,12,3.10
2017,04,04,06,13,3.10
2017,04,04,06,14,3.10
2017,04,04,06,15,3.10
2017,04,04,06,16,3.10
2017,04,04,06,17,3.10
2017,04,04,06,18,3.10
2017,04,04,06,19,3.10
2017,04,04,06,20,3.10
2017,04,04,06,21,3.10
2017,04,04,06,22,3.10
2017,04,04,06,23,3.10
2017,04,04,06,24,3.10
2017,04,04,06,25,3.10
2017,04,04,06,26,3.10
2017,04,04,06,27,3.10
2017,04,04,06,28,3.10
2017,04,04,06,29,3.10
2017,04,04,06,30,3.10
2017,04,04,06,31,3.10
2017,04,04,06,32,3.10
2017,04,04,06,33,3.10
2017,04,04,06,34,3.10
2017,04,04,06,35,3.10
2017,04,04,06,36,3.10
2017,04,04,06,37,3.10
2017,04,04,06,38,3.10
2017,04,04,06,39,3.10
2017,04,04,06,40,3.10
2017,04,04,06,41,3.10
2017,04,04,06,42,3.10
2017,04,04,06,43,3.10
2017,04,04,06,44,3.10
2017,04,04,06,45,3.10
2017,04,04,06,46,3.10
2017,04,04,06,47,3.10
2017,04,04,06,48,3.10
2017,04,04,06,49,3.10
2017,04,04,06,50,3.10
2017,04,04,06,51,3.10
2017,04,04,06,52,3.10
2017,04,04,06,53,3.10
2017,04,04,06,54,3.10
2017,04,04,06,55,3.10
2017,04,04,06,56,3.00
2017,04,04,06,57,3.00
2017,04,04,06,58,3.00
2017,04,04,06,59,3.00
2017,04,04,07,00,3.00
2017,04,04,07,01,3.00
2017,04,04,07,02,3.00
2017,04,04,07,03,3.00
2017,04,04,07,04,3.00
2017,04,04,07,05,3.00
2017,04,04,07,06,3.10
2017,04,04,07,07,3.10
2017,04,04,07,08,3.10
2017,04,04,07,09,3.10
2017,04,04,07,10,3.10
2017,04,04,07,11,3.10
2017,04,04,07,12,3.10
2017,04,04,07,13,3.10
2017,04,04,07,14,3.10
2017,04,04,07,15,3.10
2017,04,04,07,16,3.10
2017,04,04,07,17,3.10
2017,04,04,07,18,3.10
2017,04,04,07,19,3.10
2017,04,04,07,20,3.10
2017,04,04,07,21,3.10
2017,04,04,07,22,3.10
2017,04,04,07,23,3.10
2017,04,04,07,24,3.10
2017,04,04,07,25,3.10
2017,04,04,07,26,3.10
2017,04,04,07,27,3.10
2017,04,04,07,28,3.10
2017,04,04,07,29,3.20
2017,04,04,07,30,3.20
2017,04,04,07,31,3.20
2017,04,04,07,32,3.20
2017,04,04,07,33,3.20
2017,04,04,07,34,3.20
2017,04,04,07,35,3.20
2017,04,04,07,36,3.20
2017,04,04,07,37,3.20
2017,04,04,07,38,3.20
2017,04,04,07,39,3.20
2017,04,04,07,40,3.20
2017,04,04,07,41,3.20
2017,04,04,07,42,3.20
2017,04,04,07,43,3.20
2017,04,04,07,44,3.30
2017,04,04,07,45,3.30
2017,04,04,07,46,3.30
2017,04,04,07,47,3.30
2017,04,04,07,48,3.30
2017,04,04,07,49,3.30
2017,04,04,07,50,3.30
2017,04,04,07,51,3.30
2017,04,04,07,52,3.30
2017,04,04,07,53,3.30
2017,04,04,07,54,3.30
2017,04,04,07,55,3.30
2017,04,04,07,56,3.30
2017,04,04,07,57,3.40
2017,04,04,07,58,3.40
2017,04,04,07,59,3.40
2017,04,04,08,00,3.40
2017,04,04,08,01,3.40
2017,04,04,08,02,3.40
2017,04,04,08,03,3.40
2017,04,04,08,04,3.40
2017,04,04,08,05,3.50
2017,04,04,08,06,3.50
2017,04,04,08,07,3.50
2017,04,04,08,08,3.50
2017,04,04,08,09,3.50
2017,04,04,08,10,3.60
2017,04,04,08,11,3.60
2017,04,04,08,12,3.60
2017,04,04,08,13,3.60
2017,04,04,08,14,3.60
2017,04,04,08,15,3.60
2017,04,04,08,16,3.70
2017,04,04,08,17,3.70
2017,04,04,08,18,3.70
2017,04,04,08,19,3.70
2017,04,04,08,20,3.70
2017,04,04,08,21,3.80
2017,04,04,08,22,3.80
2017,04,04,08,23,3.80
2017,04,04,08,24,3.80
2017,04,04,08,25,3.80
2017,04,04,08,26,3.90
2017,04,04,08,27,3.90
2017,04,04,08,28,3.90
2017,04,04,08,29,3.90
2017,04,04,08,30,3.90
2017,04,04,08,31,4.00
2017,04,04,08,32,4.00
2017,04,04,08,33,4.00
2017,04,04,08,34,4.10
2017,04,04,08,35,4.10
2017,04,04,08,36,4.10
2017,04,04,08,37,4.10
2017,04,04,08,38,4.10
2017,04,04,08,39,4.10
2017,04,04,08,40,4.20
2017,04,04,08,41,4.20
2017,04,04,08,42,4.20
2017,04,04,08,43,4.20
2017,04,04,08,44,4.20
2017,04,04,08,45,4.30
2017,04,04,08,46,4.30
2017,04,04,08,47,4.30
2017,04,04,08,48,4.30
2017,04,04,08,49,4.40
2017,04,04,08,50,4.40
2017,04,04,08,51,4.40
2017,04,04,08,52,4.40
2017,04,04,08,53,4.40
2017,04,04,08,54,4.50
2017,04,04,08,55,4.50
2017,04,04,08,56,4.50
2017,04,04,08,57,4.60
2017,04,04,08,58,4.60
2017,04,04,08,59,4.60
2017,04,04,09,00,4.70
2017,04,04,09,01,4.70
2017,04,04,09,02,4.70
2017,04,04,09,03,4.80
2017,04,04,09,04,4.80
2017,04,04,09,05,4.80
2017,04,04,09,06,4.90
2017,04,04,09,07,4.90
2017,04,04,09,08,5.00
2017,04,04,09,09,5.10
2017,04,04,09,10,5.10
2017,04,04,09,11,5.10
2017,04,04,09,12,5.20
2017,04,04,09,13,5.20
2017,04,04,09,14,5.30
2017,04,04,09,15,5.30
2017,04,04,09,16,5.30
2017,04,04,09,17,5.40
2017,04,04,09,18,5.40
2017,04,04,09,19,5.50
2017,04,04,09,20,5.50
2017,04,04,09,21,5.50
2017,04,04,09,22,5.60
2017,04,04,09,23,5.60
2017,04,04,09,24,5.60
2017,04,04,09,25,5.70
2017,04,04,09,26,5.70
2017,04,04,09,27,5.70
2017,04,04,09,28,5.70
2017,04,04,09,29,5.80
2017,04,04,09,30,5.80
2017,04,04,09,31,5.80
2017,04,04,09,32,5.80
2017,04,04,09,33,5.80
2017,04,04,09,34,5.90
2017,04,04,09,35,5.90
2017,04,04,09,36,5.90
2017,04,04,09,37,5.90
2017,04,04,09,38,5.90
2017,04,04,09,39,6.00
2017,04,04,09,40,6.00
2017,04,04,09,41,6.10
2017,04,04,09,42,6.10
2017,04,04,09,43,6.10
2017,04,04,09,44,6.20
2017,04,04,09,45,6.20
2017,04,04,09,46,6.30
2017,04,04,09,47,6.30
2017,04,04,09,48,6.30
2017,04,04,09,49,6.40
2017,04,04,09,50,6.40
2017,04,04,09,51,6.50
2017,04,04,09,52,6.50
2017,04,04,09,53,6.60
2017,04,04,09,54,6.60
2017,04,04,09,55,6.70
2017,04,04,09,56,6.70
2017,04,04,09,57,6.80
2017,04,04,09,58,6.80
2017,04,04,09,59,6.90
2017,04,04,10,00,7.00
2017,04,04,10,01,7.00
2017,04,04,10,02,7.10
2017,04,04,10,03,7.20
2017,04,04,10,04,7.20
2017,04,04,10,05,7.20
2017,04,04,10,06,7.20
2017,04,04,10,07,7.30
2017,04,04,10,08,7.30
2017,04,04,10,09,7.40
2017,04,04,10,10,7.50
2017,04,04,10,11,7.50
2017,04,04,10,12,7.60
2017,04,04,10,13,7.60
2017,04,04,10,14,7.70
2017,04,04,10,15,7.70
2017,04,04,10,16,7.70
2017,04,04,10,17,7.80
2017,04,04,10,18,7.80
2017,04,04,10,19,7.80
2017,04,04,10,20,7.90
2017,04,04,10,21,7.90
2017,04,04,10,22,7.90
2017,04,04,10,23,7.90
2017,04,04,10,24,7.90
2017,04,04,10,25,7.90
2017,04,04,10,26,8.00
2017,04,04,10,27,8.00
2017,04,04,10,28,8.10
2017,04,04,10,29,8.10
2017,04,04,10,30,8.10
2017,04,04,10,31,8.10
2017,04,04,10,32,8.10
2017,04,04,10,33,8.20
2017,04,04,10,34,8.20
2017,04,04,10,35,8.20
2017,04,04,10,36,8.20
2017,04,04,10,37,8.20
2017,04,04,10,38,8.30
2017,04,04,10,39,8.30
2017,04,04,10,40,8.40
2017,04,04,10,41,8.40
2017,04,04,10,42,8.40
2017,04,04,10,43,8.50
2017,04,04,10,44,8.50
2017,04,04,10,45,8.50
2017,04,04,10,46,8.60
2017,04,04,10,47,8.60
2017,04,04,10,48,8.60
2017,04,04,10,49,8.60
2017,04,04,10,50,8.60
2017,04,04,10,51,8.60
2017,04,04,10,52,8.60
2017,04,04,10,53,8.60
2017,04,04,10,54,8.60
2017,04,04,10,55,8.60
2017,04,04,10,56,8.60
2017,04,04,10,57,8.60
2017,04,04,10,58,8.60
2017,04,04,10,59,8.70
2017,04,04,11,00,8.70
2017,04,04,11,01,8.70
2017,04,04,11,02,8.80
2017,04,04,11,03,8.80
2017,04,04,11,04,8.80
2017,04,04,11,05,8.80
2017,04,04,11,06,8.80
2017,04,04,11,07,8.90
2017,04,04,11,08,8.90
2017,04,04,11,09,9.00
2017,04,04,11,10,9.00
2017,04,04,11,11,9.10
2017,04,04,11,12,9.10
2017,04,04,11,13,9.10
2017,04,04,11,14,9.10
2017,04,04,11,15,9.10
2017,04,04,11,16,9.10
2017,04,04,11,17,9.10
2017,04,04,11,18,9.10
2017,04,04,11,19,9.10
2017,04,04,11,20,9.10
2017,04,04,11,21,9.10
2017,04,04,11,22,9.20
2017,04,04,11,23,9.20
2017,04,04,11,24,9.20
2017,04,04,11,25,9.20
2017,04,04,11,26,9.30
2017,04,04,11,27,9.30
2017,04,04,11,28,9.30
2017,04,04,11,29,9.40
2017,04,04,11,30,9.40
2017,04,04,11,31,9.40
2017,04,04,11,32,9.40
2017,04,04,11,33,9.40
2017,04,04,11,34,9.40
2017,04,04,11,35,9.50
2017,04,04,11,36,9.40
2017,04,04,11,37,9.50
2017,04,04,11,38,9.50
2017,04,04,11,39,9.60
2017,04,04,11,40,9.60
2017,04,04,11,41,9.60
2017,04,04,11,42,9.60
2017,04,04,11,43,9.60
2017,04,04,11,44,9.70
2017,04,04,11,45,9.70
2017,04,04,11,46,9.80
2017,04,04,11,47,9.80
2017,04,04,11,48,9.80
2017,04,04,11,49,9.80
2017,04,04,11,50,9.80
2017,04,04,11,51,9.80
2017,04,04,11,52,9.80
2017,04,04,11,53,9.90
2017,04,04,11,54,9.90
2017,04,04,11,55,9.90
2017,04,04,11,56,9.90
2017,04,04,11,57,9.90
2017,04,04,11,58,9.90
2017,04,04,11,59,9.90
2017,04,04,12,00,9.90
2017,04,04,12,01,10.00
2017,04,04,12,02,10.00
2017,04,04,12,03,10.00
2017,04,04,12,04,10.00
2017,04,04,12,05,10.00
2017,04,04,12,06,10.00
2017,04,04,12,07,10.10
2017,04,04,12,08,10.10
2017,04,04,12,09,10.10
2017,04,04,12,10,10.10
2017,04,04,12,11,10.10
2017,04,04,12,12,10.10
2017,04,04,12,13,10.10
2017,04,04,12,14,10.10
2017,04,04,12,15,10.20
2017,04,04,12,16,10.20
2017,04,04,12,17,10.20
2017,04,04,12,18,10.20
2017,04,04,12,19,10.20
2017,04,04,12,20,10.20
2017,04,04,12,21,10.20
2017,04,04,12,22,10.20
2017,04,04,12,23,10.10
2017,04,04,12,24,10.10
2017,04,04,12,25,10.10
2017,04,04,12,26,10.10
2017,04,04,12,27,10.10
2017,04,04,12,28,10.10
2017,04,04,12,29,10.10
2017,04,04,12,30,10.10
2017,04,04,12,31,10.10
2017,04,04,12,32,10.00
2017,04,04,12,33,10.00
2017,04,04,12,34,10.00
2017,04,04,12,35,10.00
2017,04,04,12,36,10.00
2017,04,04,12,37,10.10
2017,04,04,12,38,10.10
2017,04,04,12,39,10.10
2017,04,04,12,40,10.10
2017,04,04,12,41,10.10
2017,04,04,12,42,10.10
2017,04,04,12,43,10.00
2017,04,04,12,44,10.00
2017,04,04,12,45,10.00
2017,04,04,12,46,10.00
2017,04,04,12,47,10.00
2017,04,04,12,48,10.00
2017,04,04,12,49,10.10
2017,04,04,12,50,10.10
2017,04,04,12,51,10.10
2017,04,04,12,52,10.10
2017,04,04,12,53,10.10
2017,04,04,12,54,10.10
2017,04,04,12,55,10.10
2017,04,04,12,56,10.10
2017,04,04,12,57,10.00
2017,04,04,12,58,10.00
2017,04,04,12,59,10.00
2017,04,04,13,00,10.10
2017,04,04,13,01,10.10
2017,04,04,13,02,10.10
2017,04,04,13,03,10.10
2017,04,04,13,04,10.20
2017,04,04,13,05,10.20
2017,04,04,13,06,10.20
2017,04,04,13,07,10.30
2017,04,04,13,08,10.30
2017,04,04,13,09,10.30
2017,04,04,13,10,10.30
2017,04,04,13,11,10.30
2017,04,04,13,12,10.30
2017,04,04,13,13,10.40
2017,04,04,13,14,10.40
2017,04,04,13,15,10.40
2017,04,04,13,16,10.40
2017,04,04,13,17,10.40
2017,04,04,13,18,10.40
2017,04,04,13,19,10.40
2017,04,04,13,20,10.40
2017,04,04,13,21,10.40
2017,04,04,13,22,10.40
2017,04,04,13,23,10.40
2017,04,04,13,24,10.40
2017,04,04,13,25,10.40
2017,04,04,13,26,10.40
2017,04,04,13,27,10.40
2017,04,04,13,28,10.40
2017,04,04,13,29,10.40
2017,04,04,13,30,10.40
2017,04,04,13,31,10.40
2017,04,04,13,32,10.40
2017,04,04,13,33,10.40
2017,04,04,13,34,10.50
2017,04,04,13,35,10.50
2017,04,04,13,36,10.50
2017,04,04,13,37,10.60
2017,04,04,13,38,10.60
2017,04,04,13,39,10.60
2017,04,04,13,40,10.70
2017,04,04,13,41,10.70
2017,04,04,13,42,10.70
2017,04,04,13,43,10.70
2017,04,04,13,44,10.70
2017,04,04,13,45,10.70
2017,04,04,13,46,10.70
2017,04,04,13,47,10.70
2017,04,04,13,48,10.70
2017,04,04,13,49,10.70
2017,04,04,13,50,10.70
2017,04,04,13,51,10.60
2017,04,04,13,52,10.60
2017,04,04,13,53,10.60
2017,04,04,13,54,10.60
2017,04,04,13,55,10.60
2017,04,04,13,56,10.60
2017,04,04,13,57,10.60
2017,04,04,13,58,10.60
2017,04,04,13,59,10.70
2017,04,04,14,00,10.70
2017,04,04,14,01,10.70
2017,04,04,14,02,10.70
2017,04,04,14,03,10.70
2017,04,04,14,04,10.70
2017,04,04,14,05,10.70
2017,04,04,14,06,10.70
2017,04,04,14,07,10.70
2017,04,04,14,08,10.80
2017,04,04,14,09,10.80
2017,04,04,14,10,10.80
2017,04,04,14,11,10.80
2017,04,04,14,12,10.90
2017,04,04,14,13,10.90
2017,04,04,14,14,10.90
2017,04,04,14,15,11.00
2017,04,04,14,16,11.00
2017,04,04,14,17,11.10
2017,04,04,14,18,11.10
2017,04,04,14,19,11.10
2017,04,04,14,20,11.10
2017,04,04,14,21,11.20
2017,04,04,14,22,11.20
2017,04,04,14,23,11.20
2017,04,04,14,24,11.20
2017,04,04,14,25,11.20
2017,04,04,14,26,11.20
2017,04,04,14,27,11.20
2017,04,04,14,28,11.20
2017,04,04,14,29,11.20
2017,04,04,14,30,11.20
2017,04,04,14,31,11.20
2017,04,04,14,32,11.20
2017,04,04,14,33,11.20
2017,04,04,14,34,11.20
2017,04,04,14,35,11.10
2017,04,04,14,36,11.10
2017,04,04,14,37,11.10
2017,04,04,14,38,11.10
2017,04,04,14,39,11.00
2017,04,04,14,40,11.00
2017,04,04,14,41,11.00
2017,04,04,14,42,11.00
2017,04,04,14,43,10.90
2017,04,04,14,44,10.90
2017,04,04,14,45,10.90
2017,04,04,14,46,10.90
2017,04,04,14,47,10.90
2017,04,04,14,48,10.90
2017,04,04,14,49,10.90
2017,04,04,14,50,10.90
2017,04,04,14,51,10.90
2017,04,04,14,52,10.90
2017,04,04,14,53,10.90
2017,04,04,14,54,10.90
2017,04,04,14,55,10.90
2017,04,04,14,56,10.90
2017,04,04,14,57,10.90
2017,04,04,14,58,11.00
2017,04,04,14,59,11.00
2017,04,04,15,00,11.00
2017,04,04,15,01,11.00
2017,04,04,15,02,11.00
2017,04,04,15,03,11.00
2017,04,04,15,04,11.00
2017,04,04,15,05,11.00
2017,04,04,15,06,11.00
2017,04,04,15,07,11.00
2017,04,04,15,08,11.00
2017,04,04,15,09,10.90
2017,04,04,15,10,10.90
2017,04,04,15,11,10.90
2017,04,04,15,12,10.90
2017,04,04,15,13,10.90
2017,04,04,15,14,10.90
2017,04,04,15,15,10.80
2017,04,04,15,16,10.80
2017,04,04,15,17,10.90
2017,04,04,15,18,10.90
2017,04,04,15,19,10.90
2017,04,04,15,20,10.90
2017,04,04,15,21,10.90
2017,04,04,15,22,10.90
2017,04,04,15,23,10.90
2017,04,04,15,24,10.90
2017,04,04,15,25,10.90
2017,04,04,15,26,10.90
2017,04,04,15,27,10.90
2017,04,04,15,28,10.90
2017,04,04,15,29,10.90
2017,04,04,15,30,10.90
2017,04,04,15,31,10.90
2017,04,04,15,32,10.90
2017,04,04,15,33,10.90
2017,04,04,15,34,10.90
2017,04,04,15,35,10.90
2017,04,04,15,36,10.90
2017,04,04,15,37,10.90
2017,04,04,15,38,10.90
2017,04,04,15,39,10.90
2017,04,04,15,40,10.90
2017,04,04,15,41,10.90
2017,04,04,15,42,10.90
2017,04,04,15,43,10.90
2017,04,04,15,44,10.90
2017,04,04,15,45,10.90
2017,04,04,15,46,10.90
2017,04,04,15,47,10.90
2017,04,04,15,48,10.90
2017,04,04,15,49,10.90
2017,04,04,15,50,10.90
2017,04,04,15,51,10.90
2017,04,04,15,52,10.90
2017,04,04,15,53,10.90
2017,04,04,15,54,10.90
2017,04,04,15,55,10.90
2017,04,04,15,56,10.90
2017,04,04,15,57,10.80
2017,04,04,15,58,10.80
2017,04,04,15,59,10.80
2017,04,04,16,00,10.80
2017,04,04,16,01,10.80
2017,04,04,16,02,10.80
2017,04,04,16,03,10.80
2017,04,04,16,04,10.80
2017,04,04,16,05,10.80
2017,04,04,16,06,10.80
2017,04,04,16,07,10.80
2017,04,04,16,08,10.80
2017,04,04,16,09,10.80
2017,04,04,16,10,10.80
2017,04,04,16,11,10.80
2017,04,04,16,12,10.90
2017,04,04,16,13,10.90
2017,04,04,16,14,10.90
2017,04,04,16,15,10.90
2017,04,04,16,16,10.90
2017,04,04,16,17,10.90
2017,04,04,16,18,10.90
2017,04,04,16,19,10.90
2017,04,04,16,20,10.80
2017,04,04,16,21,10.80
2017,04,04,16,22,10.80
2017,04,04,16,23,10.80
2017,04,04,16,24,10.80
2017,04,04,16,25,10.80
2017,04,04,16,26,10.70
2017,04,04,16,27,10.70
2017,04,04,16,28,10.70
2017,04,04,16,29,10.70
2017,04,04,16,30,10.70
2017,04,04,16,31,10.70
2017,04,04,16,32,10.70
2017,04,04,16,33,10.70
2017,04,04,16,34,10.70
2017,04,04,16,35,10.70
2017,04,04,16,36,10.80
2017,04,04,16,37,10.80
2017,04,04,16,38,10.80
2017,04,04,16,39,10.80
2017,04,04,16,40,10.80
2017,04,04,16,41,10.80
2017,04,04,16,42,10.80
2017,04,04,16,43,10.80
2017,04,04,16,44,10.80
2017,04,04,16,45,10.80
2017,04,04,16,46,10.80
2017,04,04,16,47,10.80
2017,04,04,16,48,10.80
2017,04,04,16,49,10.80
2017,04,04,16,50,10.80
2017,04,04,16,51,10.80
2017,04,04,16,52,10.80
2017,04,04,16,53,10.80
2017,04,04,16,54,10.80
2017,04,04,16,55,10.80
2017,04,04,16,56,10.80
2017,04,04,16,57,10.80
2017,04,04,16,58,10.80
2017,04,04,16,59,10.80
2017,04,04,17,00,10.80
2017,04,04,17,01,10.80
2017,04,04,17,02,10.80
2017,04,04,17,03,10.80
2017,04,04,17,04,10.80
2017,04,04,17,05,10.80
2017,04,04,17,06,10.80
2017,04,04,17,07,10.70
2017,04,04,17,08,10.70
2017,04,04,17,09,10.70
2017,04,04,17,10,10.70
2017,04,04,17,11,10.70
2017,04,04,17,12,10.70
2017,04,04,17,13,10.70
2017,04,04,17,14,10.70
2017,04,04,17,15,10.70
2017,04,04,17,16,10.70
2017,04,04,17,17,10.70
2017,04,04,17,18,10.70
2017,04,04,17,19,10.70
2017,04,04,17,20,10.70
2017,04,04,17,21,10.70
2017,04,04,17,22,10.70
2017,04,04,17,23,10.70
2017,04,04,17,24,10.70
2017,04,04,17,25,10.70
2017,04,04,17,26,10.70
2017,04,04,17,27,10.70
2017,04,04,17,28,10.60
2017,04,04,17,29,10.60
2017,04,04,17,30,10.50
2017,04,04,17,31,10.50
2017,04,04,17,32,10.40
2017,04,04,17,33,10.40
2017,04,04,17,34,10.40
2017,04,04,17,35,10.40
2017,04,04,17,36,10.40
2017,04,04,17,37,10.30
2017,04,04,17,38,10.30
2017,04,04,17,39,10.30
2017,04,04,17,40,10.20
2017,04,04,17,41,10.20
2017,04,04,17,42,10.20
2017,04,04,17,43,10.20
2017,04,04,17,44,10.10
2017,04,04,17,45,10.10
2017,04,04,17,46,10.10
2017,04,04,17,47,10.10
2017,04,04,17,48,10.00
2017,04,04,17,49,10.00
2017,04,04,17,50,10.00